When you browse on this site, cookies collect data to enhance your experience and personalize the content and advertising you see.
Visit our Privacy Policy to learn more. By continuing to use the site, you agree to this use of cookies and data.
  • en Suisse
  • Liste des pays
  • À 7 jours
  • Température de l'eau
  • Carte météo
  • Widgets météo
  • user-avatar
    Se connecter

    Météo par heure à Truro

    Ce jour, 9 Décembre, Lundi

    Heure Température Précipitation Vent Pression Humidité
    00:00 +7°C° 0 mm 17 m/s 748 mmHg 74%
    01:00 +7°C° 0.1 mm 17 m/s 749 mmHg 72%
    02:00 +7°C° 0.1 mm 18 m/s 750 mmHg 71%
    03:00 +7°C° 0.1 mm 18 m/s 750 mmHg 69%
    04:00 +7°C° 0.1 mm 17 m/s 752 mmHg 68%
    05:00 +7°C° 0.1 mm 16 m/s 754 mmHg 68%
    06:00 +8°C° 0 mm 15 m/s 755 mmHg 71%
    07:00 +8°C° 0.1 mm 14 m/s 756 mmHg 71%
    08:00 +8°C° 0.1 mm 13 m/s 758 mmHg 72%
    09:00 +7°C° 0.1 mm 12 m/s 759 mmHg 72%
    10:00 +8°C° 0 mm 12 m/s 760 mmHg 71%
    11:00 +8°C° 0 mm 11 m/s 762 mmHg 70%
    12:00 +8°C° 0 mm 10 m/s 763 mmHg 69%
    13:00 +8°C° 0 mm 9 m/s 763 mmHg 70%
    14:00 +9°C° 0 mm 8 m/s 763 mmHg 71%
    15:00 +8°C° 0 mm 6 m/s 764 mmHg 72%
    16:00 +8°C° 0 mm 5 m/s 764 mmHg 75%
    17:00 +7°C° 0 mm 4 m/s 765 mmHg 78%
    18:00 +7°C° 0 mm 3 m/s 766 mmHg 81%
    19:00 +7°C° 0 mm 3 m/s 766 mmHg 82%
    20:00 +7°C° 0 mm 3 m/s 766 mmHg 84%
    21:00 +7°C° 0 mm 3 m/s 766 mmHg 85%
    22:00 +6°C° 0 mm 4 m/s 765 mmHg 86%
    23:00 +6°C° 0 mm 5 m/s 765 mmHg 86%

    Demain, 10 Décembre, Mardi

    Heure Température Précipitation Vent Pression Humidité
    00:00 +5°C° 0 mm 6 m/s 765 mmHg 87%
    01:00 +6°C° 0 mm 7 m/s 764 mmHg 86%
    02:00 +7°C° 0 mm 8 m/s 763 mmHg 86%
    03:00 +7°C° 0 mm 9 m/s 762 mmHg 86%
    04:00 +8°C° 0.4 mm 10 m/s 761 mmHg 87%
    05:00 +8°C° 0.4 mm 11 m/s 760 mmHg 88%
    06:00 +8°C° 0.4 mm 12 m/s 759 mmHg 90%
    07:00 +8°C° 1 mm 13 m/s 758 mmHg 91%
    08:00 +9°C° 1 mm 14 m/s 757 mmHg 92%
    09:00 +9°C° 1 mm 14 m/s 756 mmHg 93%
    10:00 +9°C° 0.6 mm 15 m/s 755 mmHg 93%
    11:00 +10°C° 0.6 mm 15 m/s 754 mmHg 93%
    12:00 +10°C° 0.6 mm 15 m/s 753 mmHg 93%
    13:00 +10°C° 0.5 mm 16 m/s 752 mmHg 93%
    14:00 +11°C° 0.5 mm 16 m/s 751 mmHg 93%
    15:00 +11°C° 0.5 mm 16 m/s 750 mmHg 92%
    16:00 +9°C° 0.9 mm 14 m/s 751 mmHg 88%
    17:00 +8°C° 0.9 mm 13 m/s 752 mmHg 84%
    18:00 +6°C° 0.9 mm 11 m/s 752 mmHg 79%
    19:00 +6°C° 0.1 mm 10 m/s 753 mmHg 77%
    20:00 +6°C° 0.1 mm 10 m/s 754 mmHg 74%
    21:00 +6°C° 0.1 mm 9 m/s 754 mmHg 72%
    22:00 +6°C° 0 mm 8 m/s 755 mmHg 72%
    23:00 +6°C° 0 mm 8 m/s 755 mmHg 73%

    Après-demain, 11 Décembre, Mercredi

    Heure Température Précipitation Vent Pression Humidité
    00:00 +5°C° 0 mm 7 m/s 755 mmHg 74%
    01:00 +5°C° 0.1 mm 7 m/s 755 mmHg 75%
    02:00 +5°C° 0.1 mm 7 m/s 755 mmHg 77%
    03:00 +5°C° 0.1 mm 8 m/s 754 mmHg 78%
    04:00 +5°C° 0.2 mm 8 m/s 754 mmHg 78%
    05:00 +5°C° 0.2 mm 9 m/s 753 mmHg 77%
    06:00 +5°C° 0.2 mm 9 m/s 753 mmHg 76%
    07:00 +5°C° 0.2 mm 10 m/s 752 mmHg 78%
    08:00 +4°C° 0.2 mm 11 m/s 751 mmHg 80%
    09:00 +4°C° 0.2 mm 12 m/s 751 mmHg 81%
    10:00 +4°C° 0.6 mm 12 m/s 751 mmHg 79%
    11:00 +4°C° 0.6 mm 11 m/s 750 mmHg 76%
    12:00 +4°C° 0.6 mm 11 m/s 750 mmHg 73%
    13:00 +4°C° 0.4 mm 11 m/s 751 mmHg 71%
    14:00 +4°C° 0.4 mm 11 m/s 751 mmHg 69%
    15:00 +4°C° 0.4 mm 11 m/s 751 mmHg 67%
    16:00 +3°C° 0.3 mm 11 m/s 752 mmHg 68%
    17:00 +3°C° 0.3 mm 11 m/s 752 mmHg 68%
    18:00 +3°C° 0.3 mm 11 m/s 753 mmHg 69%
    19:00 +3°C° 0.1 mm 11 m/s 753 mmHg 69%
    20:00 +3°C° 0.1 mm 10 m/s 754 mmHg 70%
    21:00 +3°C° 0.1 mm 10 m/s 754 mmHg 70%
    22:00 +3°C° 0 mm 9 m/s 754 mmHg 71%
    23:00 +4°C° 0 mm 8 m/s 754 mmHg 71%

    12 Décembre, Jeudi

    Heure Température Précipitation Vent Pression Humidité
    00:00 +4°C° 0 mm 8 m/s 753 mmHg 72%
    01:00 +4°C° 0 mm 8 m/s 753 mmHg 75%
    02:00 +5°C° 0 mm 8 m/s 752 mmHg 77%
    03:00 +5°C° 0 mm 8 m/s 751 mmHg 80%
    04:00 +5°C° 0.2 mm 10 m/s 750 mmHg 83%
    05:00 +6°C° 0.2 mm 11 m/s 748 mmHg 85%
    06:00 +7°C° 0.2 mm 12 m/s 747 mmHg 88%
    07:00 +7°C° 0.9 mm 13 m/s 745 mmHg 89%
    08:00 +8°C° 0.9 mm 15 m/s 743 mmHg 89%
    09:00 +7°C° 0.9 mm 16 m/s 741 mmHg 90%
    10:00 +9°C° 1.6 mm 15 m/s 740 mmHg 89%
    11:00 +9°C° 1.6 mm 14 m/s 738 mmHg 88%
    12:00 +10°C° 1.6 mm 13 m/s 737 mmHg 88%
    13:00 +9°C° 0.5 mm 15 m/s 736 mmHg 84%
    14:00 +9°C° 0.5 mm 16 m/s 735 mmHg 80%
    15:00 +9°C° 0.5 mm 17 m/s 735 mmHg 76%
    16:00 +7°C° 0.1 mm 17 m/s 734 mmHg 75%
    17:00 +6°C° 0.1 mm 17 m/s 734 mmHg 73%
    18:00 +5°C° 0.1 mm 17 m/s 734 mmHg 71%
    19:00 +5°C° 0.3 mm 17 m/s 734 mmHg 72%
    20:00 +3°C° 0.3 mm 17 m/s 734 mmHg 73%
    21:00 +3°C° 0.3 mm 18 m/s 734 mmHg 74%
    22:00 +3°C° 0.5 mm 18 m/s 734 mmHg 73%
    23:00 +3°C° 0.5 mm 18 m/s 734 mmHg 72%

    13 Décembre, Vendredi

    Heure Température Précipitation Vent Pression Humidité
    00:00 +2°C° 0.5 mm 19 m/s 734 mmHg 70%
    01:00 +3°C° 0.4 mm 19 m/s 734 mmHg 69%
    02:00 +3°C° 0.4 mm 19 m/s 734 mmHg 67%
    03:00 +3°C° 0.4 mm 20 m/s 734 mmHg 65%
    04:00 +3°C° 0.1 mm 20 m/s 734 mmHg 66%
    05:00 +3°C° 0.1 mm 19 m/s 735 mmHg 66%
    06:00 +3°C° 0.1 mm 19 m/s 735 mmHg 67%
    07:00 +3°C° 0.1 mm 19 m/s 736 mmHg 67%
    08:00 +3°C° 0.1 mm 18 m/s 737 mmHg 66%
    09:00 +5°C° 0.1 mm 17 m/s 738 mmHg 66%
    10:00 +5°C° 0.1 mm 17 m/s 738 mmHg 66%
    11:00 +5°C° 0.1 mm 16 m/s 739 mmHg 66%
    12:00 +5°C° 0.1 mm 16 m/s 739 mmHg 66%
    13:00 +5°C° 0.1 mm 16 m/s 739 mmHg 66%
    14:00 +5°C° 0.1 mm 16 m/s 739 mmHg 66%
    15:00 +5°C° 0.1 mm 15 m/s 739 mmHg 66%
    16:00 +5°C° 0 mm 14 m/s 739 mmHg 66%
    17:00 +5°C° 0 mm 13 m/s 739 mmHg 66%
    18:00 +5°C° 0 mm 12 m/s 739 mmHg 67%
    19:00 +5°C° 0.1 mm 12 m/s 739 mmHg 68%
    20:00 +5°C° 0.1 mm 12 m/s 739 mmHg 70%
    21:00 +5°C° 0.1 mm 12 m/s 740 mmHg 71%
    22:00 +6°C° 0 mm 11 m/s 740 mmHg 71%
    23:00 +6°C° 0 mm 11 m/s 740 mmHg 71%

    14 Décembre, Samedi

    Heure Température Précipitation Vent Pression Humidité
    00:00 +6°C° 0 mm 10 m/s 740 mmHg 71%
    01:00 +6°C° 0.2 mm 10 m/s 740 mmHg 74%
    02:00 +6°C° 0.2 mm 10 m/s 740 mmHg 78%
    03:00 +6°C° 0.2 mm 9 m/s 740 mmHg 81%
    04:00 +6°C° 0.4 mm 10 m/s 740 mmHg 81%
    05:00 +6°C° 0.4 mm 11 m/s 740 mmHg 80%
    06:00 +5°C° 0.4 mm 13 m/s 741 mmHg 80%
    07:00 +5°C° 0.2 mm 13 m/s 741 mmHg 79%
    08:00 +5°C° 0.2 mm 13 m/s 742 mmHg 78%
    09:00 +5°C° 0.2 mm 13 m/s 742 mmHg 77%
    10:00 +5°C° 0.1 mm 13 m/s 743 mmHg 73%
    11:00 +5°C° 0.1 mm 12 m/s 743 mmHg 68%
    12:00 +5°C° 0.1 mm 12 m/s 744 mmHg 64%
    13:00 +6°C° 0 mm 10 m/s 744 mmHg 65%
    14:00 +6°C° 0 mm 9 m/s 744 mmHg 66%
    15:00 +5°C° 0 mm 7 m/s 744 mmHg 67%
    16:00 +5°C° 0 mm 7 m/s 743 mmHg 69%
    17:00 +5°C° 0 mm 7 m/s 743 mmHg 72%
    18:00 +5°C° 0 mm 7 m/s 742 mmHg 74%
    19:00 +5°C° 0.4 mm 9 m/s 741 mmHg 78%
    20:00 +5°C° 0.4 mm 12 m/s 741 mmHg 82%
    21:00 +6°C° 0.4 mm 14 m/s 740 mmHg 86%
    22:00 +7°C° 0.4 mm 13 m/s 740 mmHg 79%
    23:00 +5°C° 0.4 mm 13 m/s 741 mmHg 72%
    Voir plus